Location: Pinawa
(50.1500°N, 95.8830°W)
Time: 02:24:52
(UTC-06:00)

Amateur Radio Satellites - All Passes

Search period start: 15 December 2017 01:54
Search period end: 16 December 2017 01:54
Location: Pinawa, 50.1500°N, 95.8830°W

Satellite Date Start Highest point End Downlink Frequencies (MHz)
Time Altitude Azimuth
BUGSAT 1 15 Dec 01:56:07 02:00:10 75° 286° (WNW) 02:04:13 437.445
EO-79 15 Dec 01:59:55 02:02:47 18° 300° (WNW) 02:05:39 145.935-145.965
DX 1 15 Dec 02:01:07 02:05:03 32° 263° (W) 02:09:01 434.975-435.025
Gurwin Techsat 1B 15 Dec 02:03:17 02:08:30 51° 100° (E) 02:13:40 435.225
50 SAT 15 Dec 02:09:46 02:11:54 17° 267° (W) 02:14:02 437.505
ITUPSAT 1 15 Dec 02:19:51 02:24:24 47° 68° (ENE) 02:28:59 437.325
POLYITAN 1 15 Dec 02:24:03 02:25:37 12° 305° (NW) 02:27:12 437.675
BEESAT 2 15 Dec 02:24:03 02:25:16 11° 10° (N) 02:26:28 435.950
AO-91 15 Dec 02:28:54 02:32:24 59° 288° (WNW) 02:35:45 145.960
PCSat 15 Dec 02:29:04 02:34:09 38° 41° (NE) 02:39:11 145.827
AO-85 15 Dec 02:29:32 02:31:24 12° 359° (N) 02:33:19 145.980
CUBESAT XI-V 15 Dec 02:52:14 02:56:30 36° 66° (ENE) 03:00:48 437.345
M-CUBED/EXP-1 PRIME 15 Dec 02:58:03 03:00:00 13° 91° (E) 03:01:55 437.505
Oscar 19 15 Dec 02:58:30 03:03:28 46° 293° (WNW) 03:08:24 437.125/150
MOZHAYETS 4 15 Dec 03:04:54 03:09:20 51° 260° (W) 03:13:50
YUBILEINY 15 Dec 03:05:42 03:14:19 62° 92° (E) 03:23:00 435.215
KKS-1 15 Dec 03:16:47 03:19:35 17° 57° (ENE) 03:22:22 437.445
BEESAT 3 15 Dec 03:20:07 03:23:33 27° 35° (NE) 03:26:57 437.485
BEESAT 15 Dec 03:29:04 03:33:36 43° 261° (W) 03:38:09 436.000
BUGSAT 1 15 Dec 03:34:05 03:34:47 10° 305° (NW) 03:35:31 437.445
AO-7 15 Dec 03:34:37 03:42:39 47° 100° (E) 03:50:38 .
Gurwin Techsat 1B 15 Dec 03:43:41 03:48:12 29° 299° (WNW) 03:52:43 435.225
STARS 15 Dec 03:58:26 04:01:19 17° 58° (ENE) 04:04:12 437.465
ITUPSAT 1 15 Dec 03:58:32 04:02:27 25° 267° (W) 04:06:24 437.325
BEESAT 2 15 Dec 04:01:00 04:04:22 24° 33° (NNE) 04:07:41 435.950
AO-85 15 Dec 04:10:19 04:13:32 19° 24° (NNE) 04:16:55 145.980
ITAMSAT 1 15 Dec 04:11:12 04:16:21 60° 102° (ESE) 04:21:27 435.822/435.867
PCSat 15 Dec 04:12:29 04:17:44 50° 242° (WSW) 04:22:57 145.827
CUBESAT XI-V 15 Dec 04:29:43 04:33:53 32° 265° (W) 04:38:08 437.345
M-CUBED/EXP-1 PRIME 15 Dec 04:30:27 04:35:04 89° 94° (E) 04:39:25 437.505
KKS-1 15 Dec 04:51:07 04:55:35 77° 256° (WSW) 05:00:04 437.445
BEESAT 3 15 Dec 04:57:27 05:01:19 52° 236° (SW) 05:05:05 437.485
YUBILEINY 15 Dec 05:03:33 05:11:38 39° 295° (WNW) 05:19:48 435.215
STRAND 1 15 Dec 05:05:04 05:07:44 14° 52° (NE) 05:10:25 437.568
DOVE 4 15 Dec 05:08:05 05:12:32 47° 98° (E) 05:16:42 437.250
XW-2C 15 Dec 05:16:52 05:17:45 11° 87° (E) 05:18:38 145.795 - 145.815
AO-7 15 Dec 05:27:31 05:35:32 53° 301° (WNW) 05:43:33 .
STARS 15 Dec 05:32:48 05:37:10 70° 257° (WSW) 05:41:35 437.465
BEESAT 2 15 Dec 05:38:25 05:42:27 67° 234° (SW) 05:46:25 435.950
FO-29 15 Dec 05:39:56 05:45:10 20° 47° (NE) 05:50:19 435.910
HO-68 15 Dec 05:40:11 05:42:39 12° 81° (E) 05:45:05 435.675
CUTE-I 15 Dec 05:41:04 05:44:53 20° 89° (E) 05:48:41 437.470
AO-85 15 Dec 05:50:14 05:54:50 58° 45° (NE) 05:59:46 145.980
ITAMSAT 1 15 Dec 05:51:18 05:55:27 25° 301° (WNW) 05:59:34 435.822/435.867
LilacSat-2 15 Dec 05:51:55 05:55:16 27° 94° (E) 05:58:35 437.200
XW-2D 15 Dec 06:05:24 06:08:58 35° 97° (E) 06:12:31 145.860 - 145.880
M-CUBED/EXP-1 PRIME 15 Dec 06:05:54 06:08:46 17° 310° (NW) 06:11:33 437.505
NUDT-PHONESAT 15 Dec 06:07:49 06:11:00 25° 94° (E) 06:14:08 437.300
KAITUO 1B 15 Dec 06:12:23 06:15:46 29° 95° (E) 06:19:07 145.475/437.950
NO-84 15 Dec 06:16:40 06:17:57 12° 129° (SE) 06:19:17 435.350 FM
XW-2B 15 Dec 06:21:11 06:24:58 49° 100° (E) 06:28:42 145.730 - 145.750
XW-2F 15 Dec 06:32:45 06:36:35 63° 102° (ESE) 06:40:23 145.980 - 146.000
STRAND 1 15 Dec 06:40:59 06:46:06 74° 72° (ENE) 06:51:13 437.568
DOVE 4 15 Dec 06:46:17 06:49:56 24° 299° (WNW) 06:53:24 437.250
XW-2C 15 Dec 06:48:35 06:52:28 81° 285° (WNW) 06:56:19 145.795 - 145.815
UWE-3 15 Dec 06:51:07 06:52:43 12° 87° (E) 06:54:20 435.000/436.395/437.385
CUBEBUG 2 15 Dec 06:51:24 06:54:32 20° 91° (E) 06:57:42 437.445
SEEDS 15 Dec 07:09:11 07:12:56 29° 95° (E) 07:16:38 437.485
YUBILEINY 15 Dec 07:09:45 07:11:50 11° 324° (NW) 07:13:56 435.215
ZACube-1 15 Dec 07:15:01 07:16:28 11° 86° (E) 07:17:56 437.345
CUTE-I 15 Dec 07:20:09 07:25:29 72° 289° (WNW) 07:30:47 437.470
O/OREOS (USA 219) 15 Dec 07:20:54 07:21:05 10° 96° (E) 07:21:18 437.305
FO-29 15 Dec 07:21:10 07:28:53 65° 68° (ENE) 07:36:33 435.910
AO-7 15 Dec 07:21:23 07:26:31 18° 325° (NW) 07:31:40 .
HO-68 15 Dec 07:24:51 07:31:57 59° 102° (ESE) 07:38:59 435.675
LilacSat-2 15 Dec 07:26:05 07:29:33 31° 293° (WNW) 07:32:59 437.200
AAUSAT CUBESAT 2 15 Dec 07:26:41 07:29:49 20° 91° (E) 07:32:56 437.432
AO-85 15 Dec 07:31:00 07:35:04 28° 243° (WSW) 07:39:20 145.980
CUTE 1.7 + AOD 2 15 Dec 07:32:59 07:37:19 78° 102° (ESE) 07:41:36 437.475
Oscar 11 15 Dec 07:34:23 07:35:07 10° 85° (E) 07:35:50 .
TIGRISAT 15 Dec 07:38:28 07:40:02 12° 55° (NE) 07:41:35 435.000
XW-2D 15 Dec 07:39:51 07:43:00 24° 295° (WNW) 07:46:07 145.860 - 145.880
UNISAT 6 15 Dec 07:41:17 07:43:24 14° 57° (ENE) 07:45:31 437.425
NUDT-PHONESAT 15 Dec 07:41:30 07:44:50 31° 293° (WNW) 07:48:11 437.300
KAITUO 1B 15 Dec 07:46:25 07:49:40 27° 294° (WNW) 07:52:54 145.475/437.950
AO-73 15 Dec 07:47:06 07:50:25 21° 92° (E) 07:53:47 145.935
NO-84 15 Dec 07:51:28 07:54:33 74° 150° (SSE) 07:57:56 435.350 FM
XW-2B 15 Dec 07:56:07 07:58:47 18° 298° (WNW) 08:01:28 145.730 - 145.750
XW-2A 15 Dec 08:06:19 08:09:39 48° 99° (E) 08:12:59 145.665 - 145.685
XW-2F 15 Dec 08:08:01 08:10:14 15° 300° (WNW) 08:12:27 145.980 - 146.000
STRAND 1 15 Dec 08:22:24 08:25:50 18° 271° (W) 08:29:17 437.568
XW-2C 15 Dec 08:25:21 08:25:57 10° 304° (WNW) 08:26:32 145.795 - 145.815
UWE-3 15 Dec 08:25:27 08:29:46 87° 288° (WNW) 08:34:10 435.000/436.395/437.385
CUBEBUG 2 15 Dec 08:27:19 08:31:25 50° 289° (WNW) 08:35:37 437.445
SEEDS 15 Dec 08:44:47 08:48:38 34° 293° (WNW) 08:52:27 437.485
ZACube-1 15 Dec 08:49:00 08:53:22 89° 120° (ESE) 08:57:48 437.345
O/OREOS (USA 219) 15 Dec 08:55:04 08:59:39 75° 115° (ESE) 09:04:13 437.305
AAUSAT CUBESAT 2 15 Dec 09:01:29 09:05:31 46° 290° (WNW) 09:09:29 437.432
CUTE-I 15 Dec 09:01:48 09:04:39 15° 309° (NW) 09:07:29 437.470
FO-29 15 Dec 09:07:15 09:14:16 36° 268° (W) 09:21:20 435.910
Oscar 11 15 Dec 09:07:34 09:11:58 82° 102° (ESE) 09:16:20 .
CUTE 1.7 + AOD 2 15 Dec 09:10:07 09:12:35 15° 302° (WNW) 09:15:03 437.475
TIGRISAT 15 Dec 09:11:45 09:16:01 81° 74° (ENE) 09:20:17 435.000
HO-68 15 Dec 09:13:00 09:19:25 37° 303° (WNW) 09:25:48 435.675
UNISAT 6 15 Dec 09:15:13 09:19:31 87° 261° (W) 09:23:48 437.425
AO-73 15 Dec 09:22:43 09:26:54 49° 290° (WNW) 09:31:10 145.935
NO-84 15 Dec 09:28:54 09:32:01 39° 351° (N) 09:35:23 435.350 FM
XW-2A 15 Dec 09:39:58 09:42:00 15° 298° (WNW) 09:44:03 145.665 - 145.685
PRISM 15 Dec 09:41:32 09:45:38 59° 71° (ENE) 09:49:43 437.425
EO-79 15 Dec 09:47:15 09:48:44 12° 55° (NE) 09:50:15 145.935-145.965
DELFI C3 15 Dec 09:56:37 10:00:33 59° 101° (E) 10:04:25 145.870
Max Valier Satellite 15 Dec 09:57:58 10:01:33 42° 99° (E) 10:05:07 145.860
UWE-3 15 Dec 10:03:39 10:05:36 13° 303° (WNW) 10:07:34 435.000/436.395/437.385
POLYITAN 1 15 Dec 10:08:52 10:11:42 18° 60° (ENE) 10:14:32 437.675
EO-88 15 Dec 10:24:15 10:27:54 58° 101° (E) 10:31:32 145.990 - 145.960
ZACube-1 15 Dec 10:26:52 10:29:03 14° 303° (WNW) 10:31:13 437.345
QB50P2 15 Dec 10:33:31 10:37:15 32° 66° (ENE) 10:41:00 145.880/145.840
AIST 2D 15 Dec 10:34:57 10:38:27 76° 74° (ENE) 10:42:01 435.315
O/OREOS (USA 219) 15 Dec 10:36:12 10:39:36 20° 315° (NW) 10:42:59 437.305
DUCHIFAT 1 15 Dec 10:37:47 10:41:13 25° 64° (ENE) 10:44:39 145.980
Oscar 11 15 Dec 10:45:04 10:47:31 15° 302° (WNW) 10:49:57 .
TIGRISAT 15 Dec 10:51:30 10:53:18 12° 273° (W) 10:55:05 435.000
LO-87 15 Dec 10:53:08 10:55:38 18° 92° (E) 10:58:06 145.935 - 145.965
UNISAT 6 15 Dec 10:56:07 10:56:54 10° 274° (W) 10:57:42 437.425
AO-7 15 Dec 11:02:42 11:04:52 11° 20° (NNE) 11:07:03 .
HO-68 15 Dec 11:03:24 11:05:10 11° 326° (NW) 11:06:56 435.675
NANOSAT C BR1 15 Dec 11:03:55 11:07:57 50° 70° (ENE) 11:12:01 145.865
Oscar 19 15 Dec 11:04:51 11:07:17 14° 51° (NE) 11:09:44 437.125/150
NO-84 15 Dec 11:06:27 11:09:46 42° 12° (NNE) 11:13:22 435.350 FM
YUBILEINY 15 Dec 11:15:35 11:18:08 11° 37° (NE) 11:20:40 435.215
BUGSAT 1 15 Dec 11:16:14 11:18:53 17° 60° (ENE) 11:21:33 437.445
PRISM 15 Dec 11:18:35 11:21:15 16° 269° (W) 11:23:57 437.425
EO-79 15 Dec 11:19:36 11:23:47 81° 75° (ENE) 11:28:00 145.935-145.965
ESTCUBE 1 15 Dec 11:21:08 11:25:10 30° 95° (E) 11:29:11 437.505/2401.250
nSIGHT-1 15 Dec 11:30:48 11:33:13 20° 142° (SE) 11:35:39 .
DELFI C3 15 Dec 11:32:21 11:34:51 16° 300° (WNW) 11:37:21 145.870
Max Valier Satellite 15 Dec 11:32:24 11:35:06 19° 297° (WNW) 11:37:48 145.860
POLYITAN 1 15 Dec 11:42:56 11:47:04 60° 259° (W) 11:51:14 437.675
SPROUT 15 Dec 11:50:27 11:53:05 16° 89° (E) 11:55:43 437.525
Gurwin Techsat 1B 15 Dec 11:50:48 11:54:55 23° 58° (ENE) 11:59:02 435.225
AO-91 15 Dec 11:53:59 11:57:44 24° 65° (ENE) 12:01:13 145.960
EO-88 15 Dec 11:59:01 12:01:07 15° 299° (WNW) 12:03:13 145.990 - 145.960
QB50P2 15 Dec 12:09:18 12:13:02 30° 265° (W) 12:16:46 145.880/145.840
DUCHIFAT 1 15 Dec 12:12:50 12:16:43 38° 262° (W) 12:20:38 145.980
ISS 15 Dec 12:14:53 12:17:53 32° 148° (SSE) 12:20:53 437.550
LO-87 15 Dec 12:25:52 12:29:11 38° 290° (WNW) 12:32:30 145.935 - 145.965
Oscar 19 15 Dec 12:40:36 12:45:41 68° 71° (ENE) 12:50:51 437.125/150
NANOSAT C BR1 15 Dec 12:40:56 12:43:57 19° 269° (W) 12:46:58 145.865
NO-84 15 Dec 12:43:36 12:47:14 72° 210° (SSW) 12:51:09 435.350 FM
AO-7 15 Dec 12:48:11 12:54:55 29° 46° (NE) 13:01:41 .
BUGSAT 1 15 Dec 12:49:53 12:53:51 58° 258° (WSW) 12:57:50 437.445
VELOX 1 15 Dec 12:51:02 12:55:09 37° 97° (E) 12:59:14 145.980
ESTCUBE 1 15 Dec 12:57:50 13:02:01 36° 294° (WNW) 13:06:10 437.505/2401.250
EO-79 15 Dec 12:58:25 13:00:07 12° 273° (W) 13:01:50 145.935-145.965
nSIGHT-1 15 Dec 13:05:50 13:09:03 77° 160° (SSE) 13:12:17 .
YUBILEINY 15 Dec 13:10:01 13:18:14 40° 66° (ENE) 13:26:21 435.215
50 SAT 15 Dec 13:21:00 13:22:47 14° 92° (E) 13:24:32 437.505
SPROUT 15 Dec 13:25:11 13:29:24 62° 287° (WNW) 13:33:35 437.525
UKube-1 15 Dec 13:27:46 13:30:01 14° 89° (E) 13:32:14 .
Gurwin Techsat 1B 15 Dec 13:29:08 13:34:25 67° 257° (WSW) 13:39:45 435.225
AO-91 15 Dec 13:29:24 13:34:02 47° 261° (W) 13:38:13 145.960
RS-15 15 Dec 13:36:53 13:46:58 31° 103° (ESE) 13:56:55 29.354- 29.394
DX 1 15 Dec 13:44:09 13:48:02 30° 96° (E) 13:51:51 434.975-435.025
M-CUBED/EXP-1 PRIME 15 Dec 13:45:46 13:49:45 33° 58° (ENE) 13:53:54 437.505
ISS 15 Dec 13:50:54 13:54:12 80° 346° (NNW) 13:57:31 437.550
ITAMSAT 1 15 Dec 13:55:42 13:59:56 26° 59° (ENE) 14:04:11 435.822/435.867
NO-84 15 Dec 14:21:41 14:24:04 16° 228° (SW) 14:26:33 435.350 FM
Oscar 19 15 Dec 14:21:49 14:25:31 20° 270° (W) 14:29:16 437.125/150
VELOX 1 15 Dec 14:27:41 14:31:29 29° 296° (WNW) 14:35:16 145.980
AO-7 15 Dec 14:38:26 14:46:46 89° 68° (ENE) 14:55:10 .
DOVE 4 15 Dec 14:42:04 14:45:01 15° 56° (NE) 14:47:54 437.250
nSIGHT-1 15 Dec 14:42:08 14:45:21 64° 1° (N) 14:48:34 .
50 SAT 15 Dec 14:51:56 14:54:55 38° 290° (WNW) 14:57:51 437.505
MOZHAYETS 4 15 Dec 14:55:13 14:59:08 26° 94° (E) 15:03:01
SO-50 15 Dec 14:57:40 15:00:57 20° 114° (ESE) 15:04:15 436.795
UKube-1 15 Dec 15:02:14 15:06:34 75° 286° (WNW) 15:10:51 .
YUBILEINY 15 Dec 15:06:52 15:15:28 59° 269° (W) 15:23:59 435.215
Gurwin Techsat 1B 15 Dec 15:14:15 15:15:23 11° 277° (W) 15:16:31 435.225
M-CUBED/EXP-1 PRIME 15 Dec 15:19:55 15:24:02 38° 258° (WSW) 15:28:20 437.505
DX 1 15 Dec 15:20:17 15:24:14 34° 294° (WNW) 15:28:08 434.975-435.025
BEESAT 15 Dec 15:24:10 15:28:29 33° 96° (E) 15:32:47 436.000
ISS 15 Dec 15:27:32 15:30:50 70° 8° (N) 15:34:07 437.550
CUTE-I 15 Dec 15:32:10 15:33:13 11° 47° (NE) 15:34:16 437.470
ITAMSAT 1 15 Dec 15:33:57 15:39:05 58° 258° (WSW) 15:44:14 435.822/435.867
O/OREOS (USA 219) 15 Dec 15:44:12 15:45:09 11° 33° (NNE) 15:46:06 437.305
RS-15 15 Dec 15:45:37 15:58:01 88° 128° (SE) 16:10:13 29.354- 29.394
ITUPSAT 1 15 Dec 15:52:57 15:57:40 58° 101° (ESE) 16:02:22 437.325
XW-2C 15 Dec 16:02:36 16:03:55 11° 57° (ENE) 16:05:13 145.795 - 145.815
HO-68 15 Dec 16:13:37 16:18:25 20° 45° (NE) 16:23:12 435.675
DOVE 4 15 Dec 16:16:44 16:22:00 81° 74° (ENE) 16:27:03 437.250
nSIGHT-1 15 Dec 16:18:25 16:21:38 71° 201° (SSW) 16:24:51 .
CUBESAT XI-V 15 Dec 16:20:44 16:25:18 46° 98° (E) 16:29:49 437.345
MOZHAYETS 4 15 Dec 16:32:04 16:36:26 43° 292° (WNW) 16:40:48
AO-7 15 Dec 16:34:10 16:40:35 24° 270° (W) 16:47:06 .
SO-50 15 Dec 16:36:29 16:40:57 68° 313° (NW) 16:45:30 436.795
LilacSat-2 15 Dec 16:38:04 16:41:17 26° 66° (ENE) 16:44:32 437.200
KKS-1 15 Dec 16:38:35 16:41:05 15° 89° (E) 16:43:34 437.445
UKube-1 15 Dec 16:40:19 16:41:49 12° 306° (NW) 16:43:19 .
XW-2D 15 Dec 16:50:43 16:54:08 33° 68° (ENE) 16:57:35 145.860 - 145.880
NUDT-PHONESAT 15 Dec 16:51:06 16:54:03 23° 65° (ENE) 16:57:02 437.300
KAITUO 1B 15 Dec 16:56:25 16:59:38 27° 66° (ENE) 17:02:53 145.475/437.950
CUTE 1.7 + AOD 2 15 Dec 16:56:26 16:58:37 14° 57° (ENE) 17:00:50 437.475
BEESAT 15 Dec 17:01:55 17:06:17 37° 295° (WNW) 17:10:38 436.000
ISS 15 Dec 17:04:05 17:07:17 47° 206° (SSW) 17:10:27 437.550
XW-2B 15 Dec 17:06:22 17:10:01 46° 70° (ENE) 17:13:42 145.730 - 145.750
YUBILEINY 15 Dec 17:06:27 17:10:14 14° 292° (WNW) 17:14:01 435.215
CUTE-I 15 Dec 17:06:56 17:12:05 49° 67° (ENE) 17:17:15 437.470
XW-2F 15 Dec 17:17:23 17:21:06 57° 72° (ENE) 17:24:52 145.980 - 146.000
STARS 15 Dec 17:18:29 17:21:03 15° 89° (E) 17:23:36 437.465
O/OREOS (USA 219) 15 Dec 17:21:26 17:25:47 45° 56° (NE) 17:30:06 437.305
ITUPSAT 1 15 Dec 17:31:27 17:35:09 23° 300° (WNW) 17:38:50 437.325
XW-2C 15 Dec 17:33:39 17:37:27 87° 255° (WSW) 17:41:19 145.795 - 145.815
UWE-3 15 Dec 17:52:13 17:54:53 17° 60° (ENE) 17:57:34 435.000/436.395/437.385
CUBEBUG 2 15 Dec 17:53:50 17:57:22 27° 65° (ENE) 18:00:55 437.445
nSIGHT-1 15 Dec 17:55:11 17:57:26 18° 219° (SW) 17:59:41 .
DOVE 4 15 Dec 17:56:52 18:00:12 17° 272° (W) 18:03:29 437.250
HO-68 15 Dec 17:57:51 18:04:58 69° 67° (ENE) 18:12:08 435.675
CUBESAT XI-V 15 Dec 17:58:31 18:02:27 27° 297° (WNW) 18:06:22 437.345
RS-15 15 Dec 18:00:12 18:12:00 48° 337° (NNW) 18:23:29 29.354- 29.394
SEEDS 15 Dec 18:04:50 18:08:43 36° 68° (ENE) 18:12:37 437.485
LilacSat-2 15 Dec 18:12:01 18:15:27 31° 264° (W) 18:18:57 437.200
KKS-1 15 Dec 18:13:43 18:18:10 73° 287° (WNW) 18:22:33 437.445
ZACube-1 15 Dec 18:14:53 18:17:25 16° 59° (ENE) 18:19:58 437.345
SO-50 15 Dec 18:18:51 18:22:13 20° 336° (NNW) 18:25:39 436.795
AAUSAT CUBESAT 2 15 Dec 18:20:50 18:24:15 25° 64° (ENE) 18:27:41 437.432
NUDT-PHONESAT 15 Dec 18:24:20 18:27:44 34° 264° (W) 18:31:10 437.300
XW-2D 15 Dec 18:25:14 18:28:21 24° 266° (W) 18:31:31 145.860 - 145.880
CUTE 1.7 + AOD 2 15 Dec 18:29:34 18:33:50 85° 254° (WSW) 18:38:09 437.475
KAITUO 1B 15 Dec 18:30:16 18:33:34 28° 265° (W) 18:36:53 145.475/437.950
Oscar 11 15 Dec 18:32:32 18:35:08 16° 58° (ENE) 18:37:44 .
XW-2A 15 Dec 18:41:28 18:44:30 33° 69° (ENE) 18:47:35 145.665 - 145.685
XW-2B 15 Dec 18:41:49 18:44:25 18° 269° (W) 18:47:03 145.730 - 145.750
ISS 15 Dec 18:42:25 18:43:07 11° 225° (SW) 18:43:49 437.550
AO-73 15 Dec 18:46:58 18:50:26 27° 65° (ENE) 18:53:58 145.935
STRAND 1 15 Dec 18:47:42 18:51:07 18° 89° (E) 18:54:30 437.568
CUTE-I 15 Dec 18:47:44 18:52:21 29° 266° (W) 18:57:01 437.470
XW-2F 15 Dec 18:53:29 18:55:34 14° 271° (W) 18:57:42 145.980 - 146.000
STARS 15 Dec 18:53:31 18:57:52 69° 289° (WNW) 19:02:12 437.465
PCSat 15 Dec 18:58:06 19:03:24 58° 119° (ESE) 19:08:44 145.827
O/OREOS (USA 219) 15 Dec 19:01:16 19:04:58 25° 256° (WSW) 19:08:39 437.305
UWE-3 15 Dec 19:26:49 19:30:55 62° 259° (W) 19:35:03 435.000/436.395/437.385
CUBEBUG 2 15 Dec 19:30:06 19:33:55 34° 264° (W) 19:37:43 437.445
SEEDS 15 Dec 19:40:50 19:44:27 27° 266° (W) 19:48:07 437.485
HO-68 15 Dec 19:47:10 19:53:16 29° 268° (W) 19:59:24 435.675
ZACube-1 15 Dec 19:49:07 19:53:14 67° 259° (WSW) 19:57:23 437.345
KKS-1 15 Dec 19:52:19 19:53:55 12° 307° (NW) 19:55:33 437.445
AAUSAT CUBESAT 2 15 Dec 19:55:36 19:59:31 39° 262° (W) 20:03:30 437.432
SO-50 15 Dec 20:02:06 20:04:22 13° 1° (N) 20:06:41 436.795
Oscar 11 15 Dec 20:06:25 20:10:44 76° 258° (WSW) 20:15:05 .
CUTE 1.7 + AOD 2 15 Dec 20:09:33 20:10:22 10° 275° (W) 20:11:10 437.475
FO-29 15 Dec 20:12:00 20:18:27 37° 92° (E) 20:24:10 435.910
XW-2A 15 Dec 20:14:51 20:17:18 19° 267° (W) 20:19:46 145.665 - 145.685
RS-15 15 Dec 20:16:31 20:27:54 42° 10° (N) 20:38:47 29.354- 29.394
AO-73 15 Dec 20:22:47 20:26:35 35° 264° (W) 20:30:25 145.935
STRAND 1 15 Dec 20:25:46 20:30:52 74° 288° (WNW) 20:35:57 437.568
BEESAT 3 15 Dec 20:27:22 20:31:17 56° 125° (SE) 20:35:13 437.485
STARS 15 Dec 20:32:12 20:33:24 11° 307° (NW) 20:34:36 437.465
Max Valier Satellite 15 Dec 20:40:50 20:44:12 37° 69° (ENE) 20:47:38 145.860
PCSat 15 Dec 20:42:10 20:47:06 34° 321° (NW) 20:52:04 145.827
DELFI C3 15 Dec 20:45:37 20:49:33 62° 73° (ENE) 20:53:31 145.870
TIGRISAT 15 Dec 21:00:02 21:01:45 12° 87° (E) 21:03:28 435.000
UNISAT 6 15 Dec 21:03:08 21:05:29 14° 88° (E) 21:07:51 437.425
EO-88 15 Dec 21:05:44 21:09:15 49° 71° (ENE) 21:12:48 145.990 - 145.960
BEESAT 2 15 Dec 21:10:23 21:14:14 46° 123° (ESE) 21:18:08 435.950
LO-87 15 Dec 21:33:42 21:35:55 16° 62° (ENE) 21:38:08 145.935 - 145.965
SO-50 15 Dec 21:42:57 21:46:30 21° 25° (NNE) 21:50:05 436.795
AO-85 15 Dec 21:49:39 21:53:08 30° 118° (ESE) 21:56:48 145.980
FO-29 15 Dec 21:56:55 22:03:45 51° 296° (WNW) 22:09:48 435.910
BEESAT 3 15 Dec 22:05:39 22:09:05 26° 325° (NW) 22:12:31 437.485
STRAND 1 15 Dec 22:06:34 22:09:13 14° 308° (NW) 22:11:52 437.568
Max Valier Satellite 15 Dec 22:15:25 22:18:09 20° 267° (W) 22:20:57 145.860
DELFI C3 15 Dec 22:22:28 22:24:41 14° 271° (W) 22:26:57 145.870
ESTCUBE 1 15 Dec 22:24:40 22:29:00 48° 69° (ENE) 22:33:23 437.505/2401.250
PCSat 15 Dec 22:29:05 22:32:10 15° 346° (NNW) 22:35:16 145.827
RS-15 15 Dec 22:30:43 22:42:46 70° 42° (NE) 22:54:07 29.354- 29.394
TIGRISAT 15 Dec 22:34:41 22:39:02 86° 285° (WNW) 22:43:27 435.000
UNISAT 6 15 Dec 22:38:21 22:42:43 74° 285° (WNW) 22:47:06 437.425
EO-88 15 Dec 22:40:57 22:43:10 15° 270° (W) 22:45:23 145.990 - 145.960
SPROUT 15 Dec 22:47:45 22:51:03 23° 62° (ENE) 22:54:23 437.525
BEESAT 2 15 Dec 22:48:29 22:52:06 30° 323° (NW) 22:55:46 435.950
PRISM 15 Dec 22:53:10 22:57:11 49° 100° (E) 23:01:08 437.425
LO-87 15 Dec 23:05:33 23:08:59 47° 260° (W) 23:12:26 145.935 - 145.965
SO-50 15 Dec 23:23:04 23:27:43 72° 47° (NE) 23:32:26 436.795
POLYITAN 1 15 Dec 23:23:49 23:26:29 16° 90° (E) 23:29:07 437.675
AIST 2D 15 Dec 23:28:07 23:31:35 47° 99° (E) 23:35:01 435.315
AO-85 15 Dec 23:29:36 23:33:25 40° 320° (NW) 23:37:29 145.980
FO-29 15 Dec 23:43:39 23:47:04 14° 319° (NW) 23:50:21 435.910
BEESAT 3 15 Dec 23:46:38 23:47:54 11° 348° (NNW) 23:49:09 437.485
QB50P2 15 Dec 23:48:51 23:52:37 30° 95° (E) 23:56:22 145.880/145.840
DUCHIFAT 1 15 Dec 23:51:58 23:55:21 23° 93° (E) 23:58:44 145.980
VELOX 1 15 Dec 23:52:10 23:56:33 59° 70° (ENE) 00:00:56 145.980
50 SAT 15 Dec 23:52:25 23:53:14 11° 60° (ENE) 23:54:04 437.505
ESTCUBE 1 16 Dec 00:02:27 00:06:03 23° 268° (W) 00:09:40 437.505/2401.250
TIGRISAT 16 Dec 00:13:06 00:15:05 13° 304° (WNW) 00:17:04 435.000
PCSat 16 Dec 00:14:57 00:17:55 15° 12° (NNE) 00:20:52 145.827
UNISAT 6 16 Dec 00:17:19 00:18:40 11° 305° (NW) 00:20:03 437.425
NANOSAT C BR1 16 Dec 00:18:47 00:22:52 48° 100° (E) 00:26:57 145.865
SPROUT 16 Dec 00:22:37 00:26:42 46° 261° (W) 00:30:48 437.525
UKube-1 16 Dec 00:25:56 00:29:18 23° 61° (ENE) 00:32:41 .
BUGSAT 1 16 Dec 00:27:54 00:30:04 14° 89° (E) 00:32:14 437.445
PRISM 16 Dec 00:29:05 00:32:08 20° 299° (WNW) 00:35:10 437.425
BEESAT 2 16 Dec 00:29:22 00:31:03 12° 346° (NNW) 00:32:44 435.950
EO-79 16 Dec 00:35:00 00:39:14 79° 104° (ESE) 00:43:27 145.935-145.965
DX 1 16 Dec 00:43:37 00:47:49 47° 69° (ENE) 00:52:02 434.975-435.025
RS-15 16 Dec 00:43:47 00:54:42 46° 249° (WSW) 01:05:06 29.354- 29.394
Oscar 19 16 Dec 00:48:26 00:51:46 17° 88° (E) 00:55:05 437.125/150
POLYITAN 1 16 Dec 00:58:28 01:02:39 62° 288° (WNW) 01:06:49 437.675
BEESAT 16 Dec 01:00:55 01:02:31 12° 51° (NE) 01:04:08 436.000
AIST 2D 16 Dec 01:02:09 01:04:25 16° 298° (WNW) 01:06:39 435.315
SO-50 16 Dec 01:04:19 01:07:44 20° 246° (WSW) 01:11:11 436.795
AO-85 16 Dec 01:12:31 01:14:59 15° 344° (NNW) 01:17:33 145.980
AO-91 16 Dec 01:15:22 01:17:54 19° 92° (E) 01:20:22 145.960
50 SAT 16 Dec 01:21:34 01:24:43 63° 258° (WSW) 01:27:53 437.505
QB50P2 16 Dec 01:24:38 01:28:24 32° 294° (WNW) 01:32:10 145.880/145.840
BEESAT 3 16 Dec 01:25:54 01:27:09 11° 12° (NNE) 01:28:25 437.485
DUCHIFAT 1 16 Dec 01:27:13 01:31:10 41° 292° (WNW) 01:35:07 145.980
ITUPSAT 1 16 Dec 01:28:14 01:31:30 19° 57° (ENE) 01:34:46 437.325
VELOX 1 16 Dec 01:30:15 01:33:21 18° 269° (W) 01:36:28 145.980
Gurwin Techsat 1B 16 Dec 01:40:42 01:45:32 34° 96° (E) 01:50:20 435.225
